SL-24 R/B, 40541

Orbit data source: Space-Track

SL-24 R/B, 40541 is space debris in SSO originally from a launch on Wed, 25 Mar 2015 UTC launched from the Orenburg, Russia (OREN). Debris objects in space refer to the collection of defunct objects orbiting the Earth. Examples of debris include non-operational satellites, rocket bodies, and fragments generated from explosions, collisions, or faulty payload assembly.

Loading next visibility...
Identifier
40541, 2015-014C
Orbit
SSO
Country
Flag of CISCIS
Related business
Manufacturer
Yuzhnoe
Mission
Spacecraft
Bus & Motor
15A18-BR, Unknown motor
Mass
~1,000 kg wet, ~1,000 kg dry
Launch date (UTC)
2015-03-25 (11 years ago)
Launch vehicle
Unknown
Launch site
Orenburg, Russia (OREN)
Object type
Payload
Rocket body
Debris
Shape & HBR
Cyl, 1.5 m
Radar Cross Section
10.603 m², Large (>1 m²)

Expand to show TLE details & history
Last TLE update: 15 hours ago

TLE from 15 hours ago
0 SL-24 R/B
1 40541U 15014C   25306.46527177  .00000495  00000-0  12825-3 0  9999
2 40541  97.3481 165.5716 0611468 162.8312 199.4574 13.77574266532577
Epoch: 2025-11-02T11:09Z
TLE epoch observation values (Epoch: 2025-11-02T11:09:59.480Z)
Latitude
-0.00001°
Longitude
-43.90684°
Altitude
1,402.106 km
Speed
6.948 km/s
True Right ascension
11h 02m 17s
True Declination
0° 00' 00"
Sunlit
Object was in daylight at epoch
Visualization orbit readout
Latitude
Unknown
Longitude
Unknown
Altitude
Unknown
Speed
Unknown
Apparent Right ascension
Unknown
Apparent Declination
Unknown
Sunlit
N/A
Visualization observer readout
Local Sidereal Time
22:28:39
Azimuth
Unknown
Elevation
Unknown
Doppler factor
Unknown
Orbital elements
Apogee altitude
1,418.937 km
Perigee altitude
520.35 km
Semi-major axis
7,347.781 km
Eccentricity
0.06115
Inclination
97.3481°
RAAN
165.5716°
Arg. of periapsis
162.8312°
True anomaly
197.28116°
Mean anomaly
199.4574°
Eccentric anomaly
198.3542°
Mean motion
3.44595 °/min
Orbital period
104.47 mins
BSTAR
0.00012825
Loading maneuver chart data...
Computing Atmospheric mass density...
Loading historical data...
Loading historical data...
Loading historical data...
Loading historical data...
Loading historical data...
Loading historical data...
Loading historical data...
Other satellites on launch #14 in the year 2015 (2015-03-25 UTC)

Documentation

Showing up to 5 results
|